Location: Newark
(7.0858°N, 171.3717°E)
Time: 19:51:06
(UTC+00:00)

Vanguard 2 - Pass Details

Date: 05 December 2020
Orbit: 553 x 2937 km, 32.9° (Epoch: 17 January)

Event Time Altitude Azimuth Distance (km) Brightness Sun altitude
Rises 13:07:43 0° 209° (SSW) 6,423 12.3 -71.5°
Reaches altitude 10° 13:13:47 10° 194° (SSW) 5,639 12.0 -70.7°
Maximum altitude 13:25:36 21° 152° (SSE) 4,855 11.6 -68.9°
Drops below altitude 10° 13:36:54 10° 109° (ESE) 5,433 12.0 -66.9°
Sets 13:42:24 0° 95° (E) 6,143 12.4 -65.9°
